Regional Weather Roundup
Issued by NWS Grand Forks, ND

Home | Current Version | Previous Version | Text Only | Print | Product List | Glossary Off
Versions: 1 2 3 4 5 6 7 8 9 10 11 12 13 14 15 16 17 18 19 20 21 22 23 24 25 26 27 28 29 30 31 32 33 34 35 36 37 38 39 40 41 42 43 44 45 46 47 48 49 50

000
ASUS43 KFGF 232231
RWRFGF
PRAIRIE TO PINES  WEATHER ROUNDUP
NATIONAL WEATHER SERVICE EASTERN NORTH DAKOTA/GRAND FORKS ND
400 PM CST THU FEB 23 2017

 **SATELLITE DATA USED TO AUGMENT SKY COVER AT AUTOMATED STATIONS**
 *****  WEATHER ACROSS EASTERN NORTH DAKOTA  *****

CITY           SKY/WX    TMP DP  RH WIND       PRES   REMARKS
GRAND FORKS    CLOUDY    26  12  55 N15       30.10R WCI  14
GRAND FRKS AFB CLOUDY    25  16  70 NE15      30.10R WCI  12
DEVILS LAKE    CLOUDY    24  20  84 NE9       30.08R WCI  14
FARGO          CLOUDY    30  21  69 N17G24    30.05R WCI  18
WAHPETON ARPT  CLOUDY    30  21  69 N17G25    30.01S WCI  18
$$

 ***** WEATHER ACROSS CENTRAL AND WESTERN NORTH DAKOTA  *****

CITY           SKY/WX    TMP DP  RH WIND       PRES   REMARKS
BISMARCK       CLOUDY    29  25  85 N17       30.05R WCI  17
MINOT          FAIR      27  15  61 N12       30.10R WCI  17
JAMESTOWN      CLOUDY    29  25  85 NE12      30.02R WCI  19
MINOT AFB      FAIR      24  14  65 N9        30.09R WCI  14
GARRISON         N/A     25  12  58 N12       30.06S WCI  14
WILLISTON      PTSUNNY   27  18  69 E8        30.10S WCI  19
DICKINSON      LGT SNOW  22  21  96 NE13      30.00S FOG     WCI  10
HETTINGER      CLOUDY    29  25  85 N17       29.98S FOG     WCI  17
$$

 *****  OTHER AIRPORT OBSERVATIONS IN OUR AREA  *****

CITY           SKY/WX    TMP DP  RH WIND       PRES   REMARKS
WALHALLA       NOT AVBL
GRAFTON AIRPOR CLOUDY    23  16  74 N10G16    30.13R WCI  12
VALLEY CITY AR CLOUDY    27  27 100 NE14      30.05R WCI  15
CANDO          NOT AVBL
CAVALIER APRT    N/A     23  18  80 N8        30.11S WCI  14
GWINNER        FAIR      30  27  86 NE15      30.01S WCI  19
SHEYENNE NWR     N/A     30  21  70 NE13      29.95S WCI  20
ROLLA          FAIR      21  14  73 N14       30.08R WCI   8
 ***** THE ABOVE OBSERVATIONS ARE NON NWS ARE NOT QUALITY
       CONTROLLED AND MAY MIS-REPORT RAIN FOR SNOW...
$$

  *****  WEATHER ACROSS NORTHERN MINNESOTA  *****

CITY           SKY/WX    TMP DP  RH WIND       PRES   REMARKS
FLAG ISLAND    FAIR      21   9  58 W18G24    30.03S WCI   6
WARROAD        FAIR      21  10  63 NW14G24   30.06R WCI   8
ROSEAU         FAIR      23  12  63 NW14      30.06S WCI  11
HALLOCK        PTSUNNY   25  16  68 N13       30.10R WCI  13
THF RVR FALLS  FLURRIES  24  16  71 N15       30.06S WCI  11
BAUDETTE       FAIR      22  10  60 NW15      30.01S WCI   9
WASKISH        PTSUNNY   27  16  63 N7        30.01S WCI  19
CROOKSTON      PTSUNNY   25  16  68 N23G29    30.09R WCI  10
STEPHEN NDAWN    N/A     25  16  68 N14         N/A  WCI  13
GREENBUSH NDAW   N/A     21  12  68 N12         N/A  WCI   9
$$
  *****  WEATHER ACROSS CENTRAL AND WEST MINNESOTA  *****

CITY           SKY/WX    TMP DP  RH WIND       PRES   REMARKS
FOSSTON        CLOUDY    25  18  74 N12       30.04R WCI  14
BEMIDJI        FAIR      26  16  65 N9        29.99S WCI  16
PARK RAPIDS    FAIR      29  17  61 N9        29.96S WCI  20
ELBOW LAKE     FAIR      29  22  77 NE14      29.97S WCI  18
WADENA         FAIR      27  21  80 N12       29.96S WCI  16
DETROIT LAKES  PTSUNNY   28  21  74 N9G21     30.01R WCI  20
MOORHEAD       CLOUDY    28  19  69 N17       30.05S WCI  16
FERGUS FALLS   FAIR      28  21  74 N15       30.03S WCI  17
MORRIS MN      FAIR      30  25  80 N17       29.95R WCI  18
STAPLES        FAIR      27  21  80 N9        29.96F WCI  17
$$
  *****  WEATHER ELSEWHERE ACROSS MINNESOTA  *****

CITY           SKY/WX    TMP DP  RH WIND       PRES   REMARKS
DULUTH         PTSUNNY   28  22  78 NW10      29.93R WCI  19
INTRNTL FALLS  FAIR      25  10  53 W12       29.98R WCI  14
ELY            FAIR      28  10  47 NW10      29.93R WCI  19
CLOQUET        CLOUDY    27  21  80 NW9       29.95R WCI  17
WHEATON        CLOUDY    28  21  74 N17G24    30.01R WCI  16
BRAINERD       FAIR      27  21  78 N8        29.97S WCI  19
HIBBING        FAIR      25  18  74 NW10      29.95R WCI  15
ALEXANDRIA     PTSUNNY   29  23  78 N15       29.94F WCI  18
SAINT CLOUD    CLOUDY    29  22  75 N12       29.93F WCI  19
MINNEAPOLIS    CLOUDY    33  22  63 N16       29.89F WCI  23
$$

  *****  WEATHER ACROSS SOUTH DAKOTA  *****

CITY           SKY/WX    TMP DP  RH WIND       PRES   REMARKS
SIOUX FALLS    LGT SNOW  30  28  92 NE23G32   29.81F VSB 3/4 WCI  17
BROOKINGS      FAIR      29  23  78 NE16      29.87R WCI  17
WATERTOWN      CLOUDY    27  21  78 NE23G29   29.91R WCI  12
HURON          CLOUDY    31  23  72 NE20G25   29.91F WCI  19
SISSETON         N/A     30  24  78 NE17      29.98R WCI  18
ABERDEEN       CLOUDY    28  20  71 NE23      29.99R WCI  14
MITCHELL       LGT SNOW  32  27  81 NE24      29.87F WCI  19
PIERRE         CLOUDY    30  22  72 NE16      29.91F WCI  19
MOBRIDGE       CLOUDY    33  23  66 NE13G21   29.96R WCI  24
RAPID CITY     LGT SNOW  27  24  89 NE15      29.88R VSB 1   WCI  15
$$

  *****  SOME WEATHER IN NEARBY STATES *****

CITY           SKY/WX    TMP DP  RH WIND       PRES   REMARKS
GLASGOW MT     CLOUDY    28  22  78 E12       30.07R WCI  18
GREAT FALLS MT CLOUDY    26  20  77 N7        29.97S WCI  18
CHEYENNE WY    LGT SNOW  17  13  84 NE21G28   29.65R VSB 3/4 WCI   0
SCOTTSBLUFF NE HAZE      24  19  81 NE13      29.73R VSB 1/2 WCI  12
OMAHA NE       CLOUDY    41  33  73 NE18G26   29.63R
DES MOINES IA  CLOUDY    46  38  73 NE17      29.62R
DAVENPORT IA   PTSUNNY   46  42  86 NE18      29.68F
CHICAGO IL     CLOUDY    40  34  79 NE17      29.81S
EAU CLAIRE WI  CLOUDY    39  26  59 N9        29.86F
LA CROSSE WI   FAIR      46  30  53 N14G21    29.80F
$$

  *****  SOME NATIONAL WEATHER *****

CITY           SKY/WX    TMP DP  RH WIND       PRES   REMARKS
LA GUARDIA NY  FAIR      63  51  65 S9        29.82R
RALEIGH NC     PTSUNNY   72  49  44 S6        29.87R
ATLANTA GA     FAIR      74  52  46 SE7       29.82R
NEW ORLEANS LA FAIR      76  60  57 S10       29.76S
OKLAHOMA CITY  FAIR      86  37  17 SW17      29.38F
ALBUQUERQUE NM FAIR      54   5  14 W26G36    29.66F
SALT LAKE CITY LGT SNOW  30  25  81 W10       29.83R WCI  21
LOS ANGELES CA FAIR      57  34  41 W23       30.04F
BOISE ID       CLOUDY    33  25  72 NW25G31   29.90S WCI  20
SEATTLE WA     PTSUNNY   41  33  73 W6        30.24F
$$

*** WEATHER ACROSS MANITOBA...SASKATCHEWAN AND ONTARIO ***
                ***ONTARIO***

CITY           SKY/WX    TMP DP  RH WIND       PRES   REMARKS
GERALDTON      PTSUNNY   18   5  57 W12       29.86R WCI   5
THUNDER BAY    MOSUNNY   34  14  44 NW13G18   29.88F WCI  25
SIOUX LOOKOUT  MOSUNNY   16   3  57 NW10G17   29.95R WCI   3
TORONTO        PTCLDY    52  39  62 NW20      29.78R
BIG TROUT LK   FLURRIES   1  -6  71 N10       30.02R WCI -14
PICKLE LAKE    FLURRIES   7  -4  61 NW5       29.94R WCI  -2
DRYDEN         SUNNY     23   7  50 NW13G20   29.94R WCI  11
KENORA         MOSUNNY   21   5  49 N10       29.99R WCI  10
$$
                *** MANITOBA***

CITY           SKY/WX    TMP DP  RH WIND       PRES   REMARKS
BRANDON        MOSUNNY   27  14  59 NW9       30.09R WCI  17
DAUPHIN        MOSUNNY   25  16  68 E7        30.09S WCI  17
ISLAND LAKE    MOSUNNY    5  -4  66 N7        30.13R WCI  -7
PILOT MOUND      N/A     23  14  68 NW6         N/A  WCI  16
THE PAS        MOSUNNY   14   0  52 NE3       30.16R
THOMPSON       PTSUNNY    7  -6  56 N5        30.21S WCI  -2
WINNIPEG       MOSUNNY   21  12  68 NW13      30.12R WCI   9
LYNN LAKE      PTSUNNY    3  -8  60 E7        30.18S WCI  -9
CHURCHILL      MOCLDY    -6 -11  77 NW8       30.35R WCI -21
GILLAM         MOSUNNY    5  -8  56 N12       30.22R WCI -11
$$
                ***SASKATCHEWAN***

CITY           SKY/WX    TMP DP  RH WIND       PRES   REMARKS
ESTEVAN        MOSUNNY   27  16  63 NW3       30.10R
KINDERSLEY     CLOUDY    28  14  54 NW7       30.05S WCI  21
LLOYDMINSTER   PTSUNNY   23  12  63 W8        30.06R WCI  14
PRINCE ALBERT  PTSUNNY   21   5  49 NW10      30.10R WCI  10
REGINA         FLURRIES  28  16  59 NW14      30.09R WCI  17
YORKTON        CLOUDY    27  14  59 NW14G22   30.06R WCI  15
N. BATTLEFORD  FLURRIES  23  16  74 NW5       30.10S WCI  17
LA RONGE       PTSUNNY   10   3  72 S6        30.13R WCI   1
SASKATOON      MOSUNNY   25  12  58 NW9       30.11S WCI  15
SWIFT CURRENT  CLOUDY    25  16  68 NW8       30.05R WCI  16
$$
NOTE: THESE ARE AUTOMATED STATIONS WITH LIMITED QUALITY CONTROL
      "FAIR" INDICATES FEW OR NO CLOUDS BELOW 12,000 FEET WITH NO
      SIGNIFICANT WEATHER AND/OR OBSTRUCTIONS TO VISIBILITY.
      SKY/WX - SKY CONDITION AND SIGNIFICANT WEATHER.
      TMP - AIR TEMPERATURE.    DP   - DEWPOINT TEMPERATURE.
      RH  - RELATIVE HUMIDITY.  PRES - PRESSURE.
      HX  - HEAT INDEX.         WCI  - WIND CHILL INDEX.
$




USA.gov is the U.S. government's official web portal to all federal, state and local government web resources and services.